[[{"header":{"parameterUnit":"m.s-1","parameterCategory":1,"la1":30.2991,"la2":30.254,"lo1":-89.0895,"lo2":-89.0444,"dy":0.0017,"dx":0.0017,"nx":28,"ny":28,"refTime":"2025-11-10T03:00:00:Z","depth":0,"parameterNumber":2,"parameterNumberName":"U-component_of_WINDS"},"data":[0,0,0,0,0,0,0,0,0,0,0,0,0,0,0,0,0,0,0,0,0,0,0,0,0,0,0,0,0,0,0,0,0,0,0,0,0,0,0,0,0,0,0,0,0,0,0,0,0,0,0,0,0,0,0,0,0,0,-0.2938,-0.2937,0,-0.2904,-0.2904,-0.2903,-0.2849,-0.2848,-0.2847,-0.2846,-0.2812,-0.2812,-0.2812,0,0,0,0,0,0,0,0,0,0,0,0,0,-0.2956,-0.2956,-0.2938,-0.2937,-0.2937,-0.2904,-0.2904,-0.2903,-0.2849,-0.2848,-0.2847,-0.2846,-0.2812,-0.2812,-0.2812,0,0,0,0,0,0,0,0,0,0,0,0,0,-0.2938,-0.2956,-0.2938,-0.2906,-0.2903,-0.2904,-0.2904,-0.2903,-0.2849,-0.2848,-0.2846,-0.2845,-0.2812,-0.2812,-0.2812,-0.2842,0,0,-0.2812,-0.2812,0,0,0,0,0,0,0,0,-0.2939,-0.2938,-0.2911,-0.2908,-0.2905,-0.2879,-0.2898,-0.2883,-0.285,-0.287,-0.2846,-0.2844,-0.2836,-0.2834,-0.2831,-0.2841,-0.2839,-0.2812,-0.2812,-0.2812,-0.2812,0,0,0,0,0,0,0,-0.2941,-0.2939,-0.2924,-0.2911,-0.2907,-0.2894,-0.2889,-0.2895,-0.2861,-0.2868,-0.2864,-0.2861,-0.2834,-0.2831,-0.2829,-0.2839,-0.2812,-0.2812,-0.2812,-0.2812,-0.2872,-0.2874,0,0,0,0,0,0,-0.2946,-0.294,-0.2925,-0.2923,-0.2919,-0.2895,-0.289,-0.2889,-0.2861,-0.2856,-0.2862,-0.2858,-0.2831,-0.2829,-0.2828,-0.2862,-0.2812,-0.2812,-0.2812,-0.2871,-0.2873,-0.2874,0,0,0,0,0,0,-0.2947,-0.2946,-0.2927,-0.2931,-0.2927,-0.2896,-0.2895,-0.2889,-0.2886,-0.2857,-0.2851,-0.2865,-0.283,-0.2828,-0.2839,-0.286,-0.2812,-0.2812,-0.2869,-0.2871,-0.2873,-0.2929,0,0,0,0,0,0,-0.2948,-0.2946,-0.2957,-0.2931,-0.2927,-0.2938,-0.2896,-0.2889,-0.2886,-0.2881,-0.2858,-0.2853,-0.2829,-0.2839,-0.2839,-0.2859,-0.2812,-0.2867,-0.287,-0.2873,-0.2926,-0.2933,-0.294,0,0,0,0,0,-0.2949,-0.2974,-0.2958,-0.2956,-0.294,-0.294,-0.2937,-0.2909,-0.2888,-0.2899,-0.288,-0.2853,-0.2858,-0.2841,-0.284,-0.2861,-0.2865,-0.2869,-0.2872,-0.2922,-0.2932,-0.294,0,0,0,0,0,0,-0.3003,-0.297,-0.2952,-0.2969,-0.2958,-0.293,-0.2943,-0.292,-0.2914,-0.291,-0.2875,-0.287,-0.2886,-0.2874,-0.2856,-0.2888,-0.2857,-0.2861,-0.2896,-0.2904,-0.2912,-0.2914,-0.2812,0,0,0,0,0,-0.3017,-0.3019,-0.299,-0.3009,-0.3004,-0.2975,-0.2974,-0.2953,-0.2939,-0.2934,-0.2916,-0.2905,-0.2903,-0.2903,-0.29,-0.2924,-0.2918,-0.2937,-0.2945,-0.2951,-0.2954,-0.2967,-0.2975,-0.2886,-0.2886,-0.2886,0,0,-0.3046,-0.3028,-0.3032,-0.3019,-0.3008,-0.3011,-0.2971,-0.2976,-0.2979,-0.2935,-0.2945,-0.2931,-0.2916,-0.2934,-0.2941,-0.2924,-0.2978,-0.2955,-0.296,-0.296,-0.2971,-0.298,-0.2987,-0.2888,-0.2888,-0.2888,0,0,-0.3101,-0.3087,-0.3101,-0.3091,-0.3074,-0.3055,-0.3058,-0.3035,-0.3024,-0.3033,-0.3001,-0.3003,-0.3002,-0.2992,-0.2987,-0.304,-0.3015,-0.304,-0.3078,-0.309,-0.3097,-0.3103,-0.3122,-0.313,-0.3043,-0.3043,-0.3044,0,-0.3139,-0.3143,-0.3112,-0.3119,-0.3115,-0.3076,-0.309,-0.3082,-0.3065,-0.3063,-0.3045,-0.3043,-0.303,-0.3045,-0.3058,-0.3055,-0.3059,-0.3042,-0.3099,-0.3104,-0.3109,-0.3128,-0.3135,-0.3047,-0.3046,-0.3046,-0.3046,0,-0.3191,-0.3194,-0.3207,-0.3192,-0.319,-0.3201,-0.3172,-0.3173,-0.3153,-0.3136,-0.3146,-0.3129,-0.3122,-0.3124,-0.3105,-0.3137,-0.3128,-0.3105,-0.3073,-0.3122,-0.3138,-0.3145,-0.3051,-0.305,-0.3049,-0.3048,0,0,-0.3278,-0.3247,-0.3252,-0.3245,-0.3224,-0.3226,-0.3236,-0.3229,-0.3231,-0.3221,-0.3229,-0.3229,-0.3207,-0.3202,-0.3181,-0.3192,-0.3235,-0.3167,-0.3166,-0.3181,-0.3271,-0.3289,-0.3297,-0.3219,-0.322,-0.3221,-0.3272,0,-0.3329,-0.3343,-0.3316,-0.3337,-0.334,-0.3303,-0.3312,-0.33,-0.3285,-0.3285,-0.3268,-0.3269,-0.324,-0.3237,-0.3246,-0.3228,-0.3253,-0.3224,-0.3226,-0.3227,-0.3231,-0.3306,-0.3324,-0.3374,-0.3279,-0.328,-0.328,0,-0.339,-0.3383,-0.3405,-0.3383,-0.3383,-0.3391,-0.3383,-0.3384,-0.3371,-0.3358,-0.3353,-0.3328,-0.3337,-0.3306,-0.3318,-0.3299,-0.3298,-0.329,-0.3291,-0.329,-0.3257,-0.3308,-0.3389,-0.3396,-0.329,-0.3289,-0.3289,0,-0.3452,-0.3449,-0.3461,-0.3456,-0.3431,-0.3438,-0.3428,-0.3413,-0.3411,-0.3404,-0.3403,-0.3397,-0.3395,-0.3391,-0.3366,-0.3346,-0.3381,-0.3348,-0.3372,-0.3373,-0.3381,-0.3381,-0.3464,-0.338,-0.338,-0.338,-0.338,0,-0.3512,-0.3527,-0.3489,-0.3497,-0.3512,-0.3481,-0.3498,-0.3484,-0.3471,-0.3476,-0.3444,-0.3449,-0.3415,-0.3417,-0.3398,-0.3411,-0.341,-0.3401,-0.3395,-0.3404,-0.3405,-0.3403,-0.3399,-0.3382,-0.3381,-0.3381,-0.3381,0,-0.3584,-0.356,-0.3571,-0.3546,-0.3541,-0.3553,-0.3533,-0.3539,-0.3522,-0.3528,-0.3528,-0.3501,-0.3501,-0.3476,-0.3471,-0.3458,-0.348,-0.3468,-0.3485,-0.3481,-0.3507,-0.3505,-0.3591,-0.3602,-0.3511,-0.3512,-0.3513,0,-0.3624,-0.3635,-0.3612,-0.3612,-0.3604,-0.3606,-0.3604,-0.3574,-0.3573,-0.3559,-0.3568,-0.3566,-0.3562,-0.3565,-0.3545,-0.3542,-0.353,-0.3561,-0.353,-0.3538,-0.3531,-0.3531,-0.3533,-0.3568,-0.3569,-0.357,-0.357,0,-0.3698,-0.3685,-0.3683,-0.3678,-0.3676,-0.367,-0.3662,-0.3665,-0.3633,-0.3634,-0.3634,-0.3632,-0.3627,-0.3626,-0.3619,-0.3609,-0.3585,-0.3581,-0.3586,-0.3595,-0.3604,-0.36,-0.3503,-0.3579,-0.3578,-0.3577,-0.3577,-0.3576,-0.3755,-0.3763,-0.3748,-0.3748,-0.3739,-0.3732,-0.3737,-0.3721,-0.372,-0.3714,-0.3697,-0.37,-0.3687,-0.3675,-0.3668,-0.367,-0.3655,-0.3663,-0.3665,-0.3667,-0.3673,-0.3604,-0.3669,-0.3669,-0.3668,-0.3668,-0.3668,0,-0.3828,-0.3816,-0.3816,-0.3806,-0.3806,-0.3783,-0.3773,-0.3775,-0.3778,-0.3768,-0.3765,-0.3766,-0.3765,-0.3746,-0.3742,-0.3748,-0.3737,-0.3748,-0.3748,-0.3746,-0.3686,-0.3682,-0.3757,-0.3757,-0.3757,-0.3757,-0.3757,-0.3757,-0.3865,-0.3878,-0.3864,-0.3871,-0.386,-0.3863,-0.386,-0.3854,-0.3845,-0.3848,-0.3847,-0.3834,-0.382,-0.3816,-0.3814,-0.3808,-0.3809,-0.3824,-0.3815,-0.3759,-0.375,-0.3742,-0.3738,-0.3824,-0.3824,-0.3874,-0.3875,-0.3875]},{"header":{"parameterUnit":"m.s-1","parameterCategory":1,"la1":30.2991,"la2":30.254,"lo1":-89.0895,"lo2":-89.0444,"dy":0.0017,"dx":0.0017,"nx":28,"ny":28,"refTime":"2025-11-10T03:00:00:Z","depth":0,"parameterNumber":3,"parameterNumberName":"V-component_of_WINDS"},"data":[0,0,0,0,0,0,0,0,0,0,0,0,0,0,0,0,0,0,0,0,0,0,0,0,0,0,0,0,0,0,0,0,0,0,0,0,0,0,0,0,0,0,0,0,0,0,0,0,0,0,0,0,0,0,0,0,0,0,0.3859,0.3858,0,0.3802,0.3801,0.3801,0.3821,0.3822,0.3823,0.3825,0.3764,0.3761,0.3758,0,0,0,0,0,0,0,0,0,0,0,0,0,0.3981,0.3979,0.3859,0.3858,0.3857,0.3802,0.3801,0.3801,0.3821,0.3822,0.3824,0.3825,0.3764,0.3761,0.3758,0,0,0,0,0,0,0,0,0,0,0,0,0,0.3927,0.3978,0.3859,0.3861,0.386,0.3802,0.3801,0.38,0.382,0.3822,0.3824,0.3826,0.3766,0.3761,0.3757,0.3693,0,0,0.3744,0.3743,0,0,0,0,0,0,0,0,0.393,0.3922,0.3861,0.386,0.386,0.382,0.3822,0.3764,0.382,0.3835,0.3825,0.3827,0.3781,0.3775,0.3761,0.369,0.3688,0.3744,0.3742,0.374,0.3739,0,0,0,0,0,0,0,0.3933,0.3925,0.3836,0.386,0.3859,0.3863,0.3858,0.3811,0.3798,0.3834,0.3835,0.3829,0.3781,0.3765,0.3759,0.3687,0.3744,0.374,0.3738,0.3736,0.3561,0.3559,0,0,0,0,0,0,0.3938,0.3928,0.3838,0.3834,0.39,0.386,0.3853,0.3831,0.3799,0.3795,0.3827,0.383,0.3771,0.3764,0.3757,0.3679,0.374,0.3736,0.3733,0.3563,0.356,0.3558,0,0,0,0,0,0,0.394,0.393,0.384,0.3881,0.387,0.3856,0.383,0.3829,0.3813,0.3793,0.3791,0.3813,0.3772,0.3763,0.3709,0.3677,0.3734,0.373,0.3565,0.3562,0.3559,0.3523,0,0,0,0,0,0,0.3944,0.3931,0.3907,0.3881,0.3868,0.3794,0.3829,0.3827,0.3806,0.3809,0.3779,0.3776,0.3773,0.3715,0.3705,0.3673,0.3727,0.3568,0.3564,0.356,0.3527,0.3519,0.3512,0,0,0,0,0,0.3948,0.3898,0.3905,0.3894,0.3838,0.3792,0.3784,0.3782,0.3803,0.3779,0.3766,0.3777,0.3683,0.371,0.3698,0.3664,0.357,0.3565,0.356,0.353,0.3521,0.3513,0,0,0,0,0,0,0.3919,0.3895,0.3902,0.3843,0.3819,0.3795,0.3764,0.3772,0.3742,0.3745,0.3743,0.3736,0.3681,0.3667,0.3697,0.36,0.3629,0.3622,0.3611,0.3601,0.3594,0.3598,0.3723,0,0,0,0,0,0.3907,0.3872,0.3852,0.3801,0.3789,0.3779,0.3759,0.3759,0.3734,0.3724,0.3708,0.3682,0.3647,0.3624,0.359,0.3526,0.3519,0.3497,0.349,0.3484,0.3477,0.3441,0.343,0.3542,0.3542,0.3542,0,0,0.3879,0.3861,0.3839,0.3795,0.3777,0.374,0.377,0.373,0.3703,0.3718,0.3666,0.3653,0.3625,0.3565,0.3538,0.3552,0.3445,0.3478,0.3473,0.3469,0.3435,0.3424,0.3415,0.3539,0.3539,0.354,0,0,0.3809,0.3793,0.3748,0.373,0.3703,0.3696,0.3685,0.366,0.3653,0.3601,0.3611,0.3578,0.3518,0.3497,0.3478,0.3401,0.341,0.3391,0.3351,0.3317,0.3308,0.33,0.3271,0.3261,0.3384,0.3384,0.3384,0,0.3777,0.3723,0.3724,0.3683,0.3663,0.3677,0.3631,0.3613,0.3576,0.3561,0.3578,0.3502,0.3484,0.3419,0.3401,0.3386,0.3372,0.3393,0.3309,0.3301,0.3294,0.3267,0.3256,0.3382,0.3382,0.3382,0.3383,0,0.3685,0.3648,0.3615,0.358,0.3556,0.3513,0.3507,0.3482,0.3485,0.3477,0.3423,0.3402,0.3365,0.335,0.3352,0.3285,0.3294,0.331,0.3339,0.3281,0.3255,0.3245,0.3379,0.3379,0.338,0.3381,0,0,0.3594,0.3561,0.3549,0.3533,0.3504,0.3474,0.3432,0.3396,0.3375,0.3349,0.3312,0.3261,0.3276,0.3255,0.3255,0.3224,0.3163,0.3244,0.3243,0.3228,0.3087,0.3075,0.3062,0.317,0.3168,0.3166,0.3089,0,0.3522,0.3448,0.3447,0.3379,0.3343,0.3356,0.3319,0.3297,0.3288,0.3256,0.3246,0.3209,0.3232,0.3219,0.319,0.3177,0.3135,0.3183,0.3134,0.3133,0.3139,0.3049,0.3035,0.2964,0.3079,0.3078,0.3076,0,0.3426,0.3398,0.3326,0.3303,0.3288,0.3254,0.3221,0.3191,0.3166,0.3162,0.3139,0.3143,0.3099,0.3131,0.3069,0.3102,0.3082,0.3073,0.307,0.3064,0.31,0.3039,0.2941,0.2929,0.3061,0.3062,0.3063,0,0.3365,0.331,0.3259,0.3245,0.3217,0.3193,0.318,0.3157,0.3135,0.3106,0.3092,0.3058,0.3039,0.3012,0.3007,0.3031,0.2944,0.2976,0.2938,0.2938,0.2918,0.2919,0.2813,0.2908,0.2908,0.2908,0.2909,0,0.3283,0.3238,0.3232,0.32,0.315,0.315,0.3101,0.3089,0.3069,0.3035,0.3044,0.3012,0.3008,0.2975,0.2971,0.2919,0.2911,0.2905,0.2904,0.2903,0.2904,0.2889,0.2893,0.2906,0.2906,0.2907,0.2907,0,0.3206,0.32,0.3146,0.3124,0.3117,0.3081,0.3062,0.3031,0.3024,0.2981,0.2971,0.2959,0.292,0.2913,0.2867,0.2864,0.2802,0.2807,0.2811,0.2811,0.2773,0.2776,0.2652,0.2636,0.2743,0.2742,0.2741,0,0.3153,0.3118,0.3093,0.3072,0.3057,0.3023,0.3001,0.3,0.2977,0.2946,0.2919,0.2881,0.2851,0.2788,0.2774,0.2739,0.2742,0.2702,0.2737,0.2737,0.274,0.2741,0.2737,0.2694,0.2693,0.2692,0.2691,0,0.3059,0.3058,0.3026,0.2994,0.2968,0.2942,0.2918,0.29,0.2895,0.2869,0.2829,0.2806,0.276,0.2721,0.2686,0.2672,0.268,0.2681,0.267,0.2668,0.267,0.2667,0.279,0.2683,0.2684,0.2685,0.2685,0.2685,0.2991,0.2961,0.2938,0.2903,0.2885,0.2862,0.2833,0.2822,0.279,0.2752,0.2754,0.271,0.2686,0.264,0.2623,0.2589,0.2602,0.2586,0.2582,0.2578,0.2573,0.2678,0.2583,0.2583,0.2583,0.2583,0.2583,0,0.2896,0.2882,0.285,0.2816,0.2788,0.2801,0.2774,0.275,0.2712,0.2689,0.266,0.2614,0.2578,0.2562,0.2525,0.2501,0.2504,0.2491,0.2492,0.2488,0.2565,0.2577,0.2489,0.2489,0.2489,0.2489,0.2489,0.2489,0.2843,0.2793,0.2789,0.273,0.2717,0.2675,0.2659,0.2637,0.2619,0.2569,0.2539,0.2529,0.2509,0.2471,0.2438,0.2434,0.2419,0.2405,0.2402,0.2474,0.2483,0.2492,0.2504,0.2402,0.2402,0.2329,0.2328,0.2327]}]]